[[{"header":{"parameterUnit":"m.s-1","parameterCategory":1,"la1":30.2992,"la2":30.254,"lo1":-89.0895,"lo2":-89.0443,"dy":0.0025,"dx":0.0025,"nx":19,"ny":19,"refTime":"2026-04-02T09:00:00:Z","depth":0,"parameterNumber":2,"parameterNumberName":"U-component_of_WINDS"},"data":[0,0,0,-2.6132,-2.6135,-2.6272,-2.6273,-2.6448,-2.6449,0,0,0,0,0,0,0,0,0,0,0,-2.6089,-2.609,-2.6132,-2.6135,-2.6272,-2.6273,-2.6448,-2.6449,0,0,0,0,0,0,0,0,0,0,0,-2.6088,-2.6089,-2.6091,-2.6135,-2.6272,-2.6273,-2.6447,-2.6344,0,0,0,0,0,0,0,0,0,0,-2.6211,-2.6168,-2.6089,-2.6091,-2.6136,-2.6272,-2.6273,-2.6339,-2.6351,-2.6385,0,-2.6412,0,-2.6433,-2.6461,-2.6462,0,0,0,-2.6137,-2.6159,-2.6198,-2.6091,-2.6137,-2.6272,-2.6211,-2.6346,-2.6359,-2.64,-2.6415,-2.6421,-2.6436,-2.6462,-2.6463,-2.6645,-2.6646,0,0,-2.613,-2.6112,-2.6189,-2.6206,-2.6182,-2.6206,-2.6215,-2.6354,-2.637,-2.6415,-2.6426,-2.6439,-2.6463,-2.6464,-2.6645,-2.6646,0,0,0,-2.6106,-2.6107,-2.6143,-2.6199,-2.6223,-2.621,-2.622,-2.6364,-2.6377,-2.6427,-2.6441,-2.6464,-2.6466,-2.6644,-2.6645,-2.6663,0,0,0,-2.6102,-2.6093,-2.6139,-2.613,-2.6221,-2.6295,-2.6227,-2.6367,-2.6383,-2.644,-2.6464,-2.6468,-2.6643,-2.6645,-2.6661,-2.6674,0,0,0,-2.6081,-2.6091,-2.6109,-2.6129,-2.6187,-2.6293,-2.6314,-2.6371,-2.6392,-2.6462,-2.6468,-2.6643,-2.6644,-2.6659,-2.6671,-2.6717,0,0,0,-2.6053,-2.6124,-2.6109,-2.6195,-2.6186,-2.6302,-2.6313,-2.6402,-2.6464,-2.6465,-2.6643,-2.6645,-2.6658,-2.6669,-2.6714,-2.6751,-2.6764,0,0,-2.6133,-2.6134,-2.6185,-2.6176,-2.629,-2.6283,-2.6401,-2.6476,-2.65,-2.6596,-2.6601,-2.6661,-2.6671,-2.6716,-2.6849,-2.6859,0,0,0,-2.6205,-2.6242,-2.6276,-2.6333,-2.6391,-2.6442,-2.6501,-2.6529,-2.6611,-2.6545,-2.6691,-2.6697,-2.6725,-2.6743,-2.6752,-2.6777,-2.6653,-2.6653,-2.6652,-2.6293,-2.6319,-2.6406,-2.6448,-2.6504,-2.6564,-2.6612,-2.666,-2.6671,-2.6705,-2.6733,-2.681,-2.6831,-2.6838,-2.6863,-2.6756,-2.6756,-2.6756,-2.6756,-2.6413,-2.6469,-2.6481,-2.6569,-2.6597,-2.6673,-2.6734,-2.6739,-2.6815,-2.6791,-2.6817,-2.6788,-2.6849,-2.6872,-2.6758,-2.6757,-2.6757,-2.6757,-2.6757,-2.6473,-2.6504,-2.6536,-2.6621,-2.6686,-2.6727,-2.6799,-2.6822,-2.6845,-2.687,-2.6903,-2.6902,-2.6905,-2.6884,-2.6884,-2.6885,-2.6885,-2.6885,-2.6885,-2.6522,-2.6557,-2.6613,-2.6681,-2.6721,-2.6777,-2.6838,-2.688,-2.6931,-2.6943,-2.6943,-2.695,-2.685,-2.6824,-2.689,-2.6889,-2.6888,-2.6888,-2.6888,-2.6632,-2.6611,-2.6697,-2.6737,-2.6819,-2.6881,-2.691,-2.6992,-2.703,-2.7065,-2.7067,-2.6989,-2.6992,-2.6985,-2.6963,-2.7061,-2.7061,-2.7061,-2.7061,-2.6682,-2.6685,-2.6779,-2.6841,-2.6906,-2.6941,-2.704,-2.709,-2.7138,-2.7163,-2.7153,-2.7127,-2.7118,-2.7126,-2.7116,-2.7096,-2.7225,-2.7226,-2.7226,-2.6751,-2.6761,-2.684,-2.6884,-2.695,-2.7007,-2.7101,-2.7175,-2.7226,-2.7233,-2.7183,-2.7177,-2.7135,-2.712,-2.7124,-2.7108,-2.7072,0,0]},{"header":{"parameterUnit":"m.s-1","parameterCategory":1,"la1":30.2992,"la2":30.254,"lo1":-89.0895,"lo2":-89.0443,"dy":0.0025,"dx":0.0025,"nx":19,"ny":19,"refTime":"2026-04-02T09:00:00:Z","depth":0,"parameterNumber":3,"parameterNumberName":"V-component_of_WINDS"},"data":[0,0,0,3.2657,3.2658,3.2717,3.2717,3.2795,3.2796,0,0,0,0,0,0,0,0,0,0,0,3.2642,3.2642,3.2657,3.2658,3.2717,3.2717,3.2795,3.2796,0,0,0,0,0,0,0,0,0,0,0,3.2641,3.2642,3.2643,3.2658,3.2717,3.2717,3.2795,3.2749,0,0,0,0,0,0,0,0,0,0,3.2692,3.268,3.2642,3.2643,3.2659,3.2717,3.2717,3.2747,3.2752,3.277,0,3.2788,0,3.2793,3.2802,3.2802,0,0,0,3.2656,3.2676,3.269,3.2643,3.2659,3.2717,3.269,3.275,3.2756,3.2777,3.2789,3.2792,3.2795,3.2802,3.2803,3.2918,3.2918,0,0,3.2653,3.2653,3.2686,3.2694,3.2686,3.2688,3.2692,3.2753,3.2766,3.2789,3.2793,3.2796,3.2803,3.2803,3.2917,3.2918,0,0,0,3.2645,3.2651,3.2663,3.2691,3.2701,3.269,3.2694,3.2763,3.2767,3.2794,3.2797,3.2803,3.2804,3.2916,3.2917,3.2951,0,0,0,3.2643,3.2647,3.2662,3.2663,3.27,3.2733,3.2702,3.2763,3.277,3.2796,3.2803,3.2805,3.2916,3.2917,3.2949,3.2967,0,0,0,3.2637,3.2646,3.2655,3.2663,3.2689,3.2732,3.274,3.2764,3.2772,3.2802,3.2805,3.2915,3.2917,3.2946,3.2963,3.2998,0,0,0,3.2631,3.2683,3.2656,3.2716,3.2688,3.2753,3.2739,3.2787,3.2817,3.2804,3.2916,3.2917,3.2946,3.2961,3.2996,3.3029,3.3042,0,0,3.2697,3.2691,3.2726,3.2704,3.2774,3.2744,3.2819,3.2844,3.2846,3.2893,3.2896,3.295,3.2963,3.2998,3.3117,3.3128,0,0,0,3.2747,3.2773,3.2791,3.2821,3.2843,3.2864,3.2879,3.2889,3.293,3.2871,3.2971,3.2979,3.3,3.3015,3.3025,3.3043,3.2924,3.2924,3.2924,3.2841,3.2842,3.2901,3.291,3.2939,3.2955,3.2978,3.2994,3.2985,3.3009,3.3023,3.3095,3.3113,3.312,3.3139,3.304,3.304,3.304,3.304,3.2939,3.2976,3.2965,3.3017,3.3018,3.3062,3.308,3.3072,3.3113,3.3084,3.3102,3.307,3.3132,3.3149,3.3043,3.3042,3.3042,3.3042,3.3041,3.3001,3.3019,3.3032,3.3077,3.3111,3.3117,3.3158,3.3156,3.3155,3.3173,3.3188,3.3188,3.3188,3.318,3.3181,3.3181,3.3181,3.3181,3.3182,3.3061,3.3074,3.3109,3.314,3.316,3.3186,3.3204,3.3223,3.3244,3.324,3.324,3.3229,3.3138,3.3116,3.3185,3.3185,3.3184,3.3184,3.3184,3.316,3.3138,3.3193,3.3213,3.3249,3.3285,3.3283,3.3323,3.3338,3.3359,3.3345,3.3278,3.3271,3.3263,3.3245,3.3344,3.3344,3.3344,3.3344,3.3213,3.321,3.3267,3.33,3.3332,3.3337,3.3399,3.3414,3.3425,3.3435,3.3421,3.3396,3.3389,3.3386,3.3376,3.3359,3.3485,3.3485,3.3485,3.3275,3.3276,3.3329,3.3342,3.3371,3.3395,3.3454,3.3492,3.35,3.3491,3.3444,3.3438,3.3397,3.3384,3.3373,3.3358,3.3326,0,0]}]]